星链-4185 (STARLINK-4185 )

导读

STARLINK-4185是美国SpaceX公司星链星座的成员卫星,于2022年7月17日发射入轨。它运行在约548公里的近地轨道,质量约297千克,属于星链Group 4-16组网任务的48颗卫星之一。作为低轨宽带通信卫星,它承担天基互联网接入功能,依托星链星座架构为全球提供低时延卫星互联网服务,是星链大规模太空组网的重要组成部分。

基本信息
目录编号:
53139
目录名称:
STARLINK-4185
国际标识:
2022-083H
轨道中心:
EARTH
卫星名称:
星链-4185
卫星全名:
星链-4185 (STARLINK-4185 )
卫星状态:
在轨 (已飞行1510 天)
发射日期:
2022-07-17 UTC
国别 :
美国 (US)
星等 :
--
轨道信息
数据来源 国际轨道数据 AOE轨道数据
星历时间 2026-09-03T21:32:07+0800
18小时前
查看轨道信息
2026-09-03T00:00:00+0800
1天前
查看轨道信息
半长轴 6840.886km 6840.816km
偏心率 0.0001145 0.0001129
轨道倾角 53.160° 53.160°
近地点辐角 82.519° 68.631°
升交点赤经 88.567° 92.766°
平近点角 277.594° 12.164°
近地点 461.965km 461.906km
远地点 463.533km 463.452km
周期 93.849分钟 93.847分钟
每日圈数 15.343847 15.344083
详细信息
固有亮度:
5
最大亮度:
2.5
卫星平台:
Starlink v1.5
覆盖范围:
全球
运营商:
太空探索技术公司
运营商所在国:
美国
制造商(研发单位):
太空探索技术公司
制造商所在国:
美国
使用方式:
暂无
卫星简介
星链(Starlink)计划是由太空探索技术公司(SpaceX)提出的一个巨型低轨卫星互联网星座项目,计划在2019年至2024年间在太空搭建由约1.2万颗卫星组成的“星链”网络,其中1584颗将部署在地球上空550千米处的近地轨道,并从2020年开始工作。该卫星仍在工作。
2D轨道图
3D轨道图
轨道高度分析图
轨道倾角分析图
轨道综合分析图
查看轨道综合分析图
交会数据列表
事件ID 空间交会对象 最接近时刻(TCA) 交会距离 交会风险概率(CRP) 交会风险指数(CRI) 操作
CDM_260904-185205-313906-639322
2026-09-04T
18:52:22+0000
0.409 km
远距离
1.122101E-4 高风险 0.76
CDM_260904-232605-313906-467422
2026-09-04T
23:26:01+0000
0.695 km
远距离
5.37275E-5 中风险 0.7
CDM_260904-131605-313906-467422
2026-09-04T
13:16:22+0000
0.732 km
远距离
4.5798E-5 中风险 0.68
CDM_260905-125505-313906-550721
2026-09-05T
12:55:45+0000
1.213 km
极远距离
8.501469E-6 低风险 0.54
CDM_260904-224605-313906-639322
2026-09-04T
22:46:51+0000
1.014 km
极远距离
7.020058E-6 低风险 0.52
CDM_260904-105805-313906-520621
2026-09-04T
10:58:05+0000
1.542 km
极远距离
2.882641E-6 低风险 0.44
CDM_260904-052905-313906-520622
2026-09-04T
05:29:48+0000
1.573 km
极远距离
2.716955E-6 低风险 0.44
CDM_260905-002005-313906-639321
2026-09-05T
00:20:38+0000
1.448 km
极远距离
2.179707E-6 低风险 0.42
CDM_260905-041905-313906-550721
2026-09-05T
04:19:54+0000
2.175 km
极远距离
1.524794E-6 低风险 0.39
CDM_260904-070305-313906-520623
2026-09-04T
07:03:36+0000
2.025 km
极远距离
1.378601E-6 低风险 0.38